TimeEDT,TemperatureF,Dew PointF,Humidity,Sea Level PressureIn,VisibilityMPH,Wind Direction,Wind SpeedMPH,Gust SpeedMPH,PrecipitationIn,Events,Conditions,WindDirDegrees,DateUTC
12:14 AM,61.9,59.4,91,29.65,10.0,NNW,3.5,-,N/A,,Clear,340,2013-06-28 04:14:00
12:35 AM,61.0,59.2,94,29.66,10.0,North,4.6,-,N/A,,Clear,350,2013-06-28 04:35:00
12:55 AM,59.5,58.3,96,29.66,10.0,North,3.5,-,N/A,,Clear,360,2013-06-28 04:55:00
1:14 AM,59.0,57.9,96,29.66,10.0,North,4.6,-,N/A,,Clear,360,2013-06-28 05:14:00
1:35 AM,59.9,59.0,97,29.66,10.0,Calm,Calm,-,N/A,,Clear,0,2013-06-28 05:35:00
1:55 AM,59.0,58.3,97,29.66,10.0,Calm,Calm,-,N/A,,Scattered Clouds,0,2013-06-28 05:55:00
2:35 AM,57.6,57.2,99,29.67,10.0,Calm,Calm,-,N/A,,Scattered Clouds,0,2013-06-28 06:35:00
2:54 AM,57.0,56.5,98,29.66,7.0,Calm,Calm,-,N/A,,Mostly Cloudy,0,2013-06-28 06:54:00
3:15 AM,56.3,55.9,99,29.65,10.0,Calm,Calm,-,N/A,,Scattered Clouds,0,2013-06-28 07:15:00
3:35 AM,56.7,56.3,99,29.65,7.0,Calm,Calm,-,N/A,,Clear,0,2013-06-28 07:35:00
3:55 AM,55.6,55.2,99,29.65,10.0,Calm,Calm,-,N/A,,Mostly Cloudy,0,2013-06-28 07:55:00
4:15 AM,56.5,55.8,97,29.64,10.0,Calm,Calm,-,N/A,,Overcast,0,2013-06-28 08:15:00
4:34 AM,56.5,56.1,99,29.64,10.0,Calm,Calm,-,N/A,,Scattered Clouds,0,2013-06-28 08:34:00
4:55 AM,57.2,56.7,98,29.63,10.0,Calm,Calm,-,N/A,,Scattered Clouds,0,2013-06-28 08:55:00
5:15 AM,58.5,58.1,99,29.63,10.0,Calm,Calm,-,N/A,,Overcast,0,2013-06-28 09:15:00
5:34 AM,59.5,58.8,97,29.63,10.0,Calm,Calm,-,N/A,,Mostly Cloudy,0,2013-06-28 09:34:00
5:55 AM,59.5,59.2,99,29.63,7.0,Calm,Calm,-,N/A,,Scattered Clouds,0,2013-06-28 09:55:00
6:15 AM,59.0,58.6,99,29.63,10.0,NW,3.5,-,N/A,,Clear,310,2013-06-28 10:15:00
6:34 AM,59.5,59.0,98,29.63,10.0,Calm,Calm,-,N/A,,Mostly Cloudy,0,2013-06-28 10:34:00
6:55 AM,59.5,59.0,98,29.63,10.0,NW,4.6,-,N/A,,Mostly Cloudy,320,2013-06-28 10:55:00
7:15 AM,59.9,59.2,97,29.62,10.0,Calm,Calm,-,N/A,,Mostly Cloudy,0,2013-06-28 11:15:00
7:35 AM,59.9,59.4,98,29.62,10.0,Calm,Calm,-,N/A,,Scattered Clouds,0,2013-06-28 11:35:00
7:55 AM,60.8,59.9,97,29.62,10.0,Calm,Calm,-,N/A,,Clear,0,2013-06-28 11:55:00
8:14 AM,61.7,60.6,96,29.62,10.0,Calm,Calm,-,N/A,,Clear,0,2013-06-28 12:14:00
8:35 AM,62.4,61.0,95,29.62,10.0,Calm,Calm,-,N/A,,Mostly Cloudy,0,2013-06-28 12:35:00
8:55 AM,62.8,61.2,94,29.62,10.0,North,3.5,-,N/A,,Overcast,350,2013-06-28 12:55:00
9:15 AM,64.2,62.1,93,29.61,10.0,North,3.5,-,N/A,,Mostly Cloudy,360,2013-06-28 13:15:00
9:35 AM,65.3,61.9,89,29.61,10.0,NNW,5.8,-,N/A,,Mostly Cloudy,340,2013-06-28 13:35:00
9:55 AM,66.2,62.1,86,29.61,10.0,North,6.9,-,N/A,,Overcast,350,2013-06-28 13:55:00
10:15 AM,67.8,63.5,86,29.62,10.0,North,9.2,-,N/A,,Overcast,360,2013-06-28 14:15:00
10:34 AM,66.6,62.2,86,29.62,10.0,North,10.4,-,N/A,,Overcast,10,2013-06-28 14:34:00
10:55 AM,65.3,62.2,90,29.62,10.0,NNE,8.1,-,N/A,,Overcast,20,2013-06-28 14:55:00
11:15 AM,65.5,62.6,90,29.62,10.0,NNE,4.6,-,N/A,,Overcast,20,2013-06-28 15:15:00
11:34 AM,65.7,62.8,90,29.62,10.0,NNE,3.5,-,N/A,,Overcast,20,2013-06-28 15:34:00
11:55 AM,65.8,63.1,91,29.63,10.0,NE,3.5,-,N/A,,Overcast,40,2013-06-28 15:55:00
12:15 PM,65.8,63.1,91,29.63,10.0,North,4.6,-,N/A,,Overcast,350,2013-06-28 16:15:00
12:34 PM,65.7,62.8,90,29.63,10.0,NW,3.5,-,N/A,,Overcast,310,2013-06-28 16:34:00
12:55 PM,66.2,62.8,89,29.63,10.0,Calm,Calm,-,N/A,,Overcast,0,2013-06-28 16:55:00
1:15 PM,65.8,62.8,90,29.63,10.0,SSW,3.5,-,N/A,,Overcast,210,2013-06-28 17:15:00
1:35 PM,66.4,63.3,90,29.63,10.0,South,4.6,-,N/A,,Overcast,190,2013-06-28 17:35:00
1:55 PM,65.8,62.4,89,29.63,10.0,SSE,3.5,-,N/A,,Overcast,160,2013-06-28 17:55:00
2:14 PM,67.3,62.8,85,29.63,10.0,SSE,4.6,-,N/A,,Overcast,150,2013-06-28 18:14:00
2:35 PM,67.6,62.6,84,29.63,10.0,South,3.5,-,N/A,,Overcast,170,2013-06-28 18:35:00
2:55 PM,66.6,63.0,88,29.63,3.0,Calm,Calm,-,0.04,Rain,Heavy Rain,0,2013-06-28 18:55:00
3:15 PM,66.6,64.2,92,29.63,7.0,NW,3.5,-,0.01,Rain,Light Rain,310,2013-06-28 19:15:00
3:35 PM,64.0,61.9,93,29.63,5.0,NNW,4.6,-,0.05,Rain,Rain,330,2013-06-28 19:35:00
3:54 PM,62.8,61.0,94,29.63,7.0,NNW,6.9,-,0.08,Rain,Rain,330,2013-06-28 19:54:00
4:15 PM,62.6,61.5,96,29.62,7.0,WNW,3.5,-,0.03,Rain,Rain,290,2013-06-28 20:15:00
4:35 PM,63.0,61.5,95,29.62,10.0,NW,5.8,-,0.06,Rain,Rain,320,2013-06-28 20:35:00
4:54 PM,64.8,62.6,93,29.63,10.0,North,3.5,-,0.08,Rain,Light Rain,350,2013-06-28 20:54:00
5:15 PM,69.4,66.0,89,29.63,10.0,North,9.2,-,N/A,,Light Drizzle,10,2013-06-28 21:15:00
5:35 PM,69.3,64.8,86,29.63,10.0,North,12.7,16.1,N/A,,Scattered Clouds,360,2013-06-28 21:35:00
5:55 PM,68.5,63.9,85,29.63,10.0,North,12.7,17.3,N/A,,Mostly Cloudy,360,2013-06-28 21:55:00
6:15 PM,70.7,63.5,78,29.63,10.0,North,16.1,21.9,N/A,,Scattered Clouds,10,2013-06-28 22:15:00
6:34 PM,70.9,63.9,78,29.63,10.0,North,12.7,18.4,N/A,,Mostly Cloudy,360,2013-06-28 22:34:00
6:55 PM,68.7,62.8,81,29.64,10.0,North,11.5,17.3,N/A,,Mostly Cloudy,10,2013-06-28 22:55:00
7:15 PM,68.9,62.6,80,29.64,10.0,North,9.2,-,N/A,,Scattered Clouds,10,2013-06-28 23:15:00
7:34 PM,69.4,62.8,79,29.64,10.0,NNE,6.9,-,N/A,,Scattered Clouds,20,2013-06-28 23:34:00
7:55 PM,69.4,62.4,78,29.64,10.0,NNE,8.1,-,N/A,,Clear,20,2013-06-28 23:55:00
8:15 PM,68.2,61.9,80,29.64,10.0,North,8.1,-,N/A,,Clear,360,2013-06-29 00:15:00
8:34 PM,68.2,62.6,82,29.65,10.0,NNW,6.9,-,N/A,,Mostly Cloudy,330,2013-06-29 00:34:00
8:55 PM,65.7,61.2,85,29.65,10.0,North,9.2,-,N/A,,Scattered Clouds,350,2013-06-29 00:55:00
9:15 PM,63.5,60.1,89,29.66,10.0,NNW,8.1,-,N/A,,Scattered Clouds,340,2013-06-29 01:15:00
9:35 PM,62.4,59.9,91,29.66,10.0,NNW,8.1,-,N/A,,Scattered Clouds,340,2013-06-29 01:35:00
9:55 PM,61.3,59.9,95,29.67,10.0,NNW,9.2,-,N/A,,Mostly Cloudy,330,2013-06-29 01:55:00
10:15 PM,60.4,59.0,95,29.68,10.0,NNW,8.1,-,N/A,,Mostly Cloudy,340,2013-06-29 02:15:00
10:35 PM,59.2,58.1,96,29.68,10.0,NNW,9.2,-,N/A,,Scattered Clouds,330,2013-06-29 02:35:00
10:55 PM,58.5,57.2,96,29.68,10.0,NNW,8.1,-,N/A,,Clear,340,2013-06-29 02:55:00
11:14 PM,58.3,57.2,96,29.68,10.0,NNW,9.2,-,N/A,,Scattered Clouds,340,2013-06-29 03:14:00
11:35 PM,58.1,57.2,97,29.67,10.0,NNW,6.9,-,N/A,,Mostly Cloudy,340,2013-06-29 03:35:00
11:55 PM,58.5,57.4,96,29.67,10.0,North,8.1,-,N/A,,Mostly Cloudy,350,2013-06-29 03:55:00